Location: Newark
(36.6282°N, 40.8455°E)
Time: 19:43:36
(UTC+00:00)

Envisat - Visible Passes

Search period start: 22 August 2019 00:00
Search period end: 01 September 2019 00:00
Orbit: 764 x 766 km, 98.1° (Epoch: 22 August)

Date Brightness Start Highest point End Pass type
(mag) Time Alt. Az. Time Alt. Az. Time Alt. Az.
23 Aug 5.7 16:42:36 10° SW 16:46:09 19° W 16:49:43 10° NW visible
26 Aug 5.5 16:30:45 10° SSW 16:34:50 24° W 16:38:56 10° NW visible
28 Aug 6.0 16:58:12 10° WSW 17:00:33 13° W 17:02:55 10° WNW visible
29 Aug 5.1 16:19:03 10° SSW 16:23:30 31° W 16:28:00 10° NW visible
31 Aug 5.8 16:45:55 10° SW 16:49:12 17° W 16:52:30 10° NW visible
